Hourly Data Report for October 04, 2017

All times are specified in Local Standard Time (LST). Add 1 hour to adjust for Daylight Saving Time where and when it is observed.

CAPE DORSET A
NUNAVUT

64°13'49.000" N
76°31'30.000" W
48.20 m
2400637
71366
YTE

Related Data

No related data is available for this station

Download Data

Hourly Data (October 2017)
Hourly Data Report for October 4, 2017
Temp Definition
°C
Dew Point Temp Definition
°C
Rel Hum Definition
%
Wind Dir Definition
10's deg

Wind Spd Definition
km/h
Visibility Definition
km
Stn Press Definition
kPa
Hmdx Definition


Wind Chill Definition


Weather Definition


TIME
00:00 Legend Double Dagger -3.4 -4.0 96 28 35 1.2 98.88   -11 Snow
01:00 Legend Double Dagger -2.9 -4.6 88 28 34 16.1 98.90   -11 Snow
02:00 Legend Double Dagger -2.9 -4.8 87 28 41 16.1 98.93   -11 Snow
03:00 Legend Double Dagger -2.8 -6.5 76 27 45 12.9 98.93   -12 Snow
04:00 Legend Double Dagger -3.2 -7.7 71 27 43 16.1 98.92   -12 LegendNANA
05:00 Legend Double Dagger -3.5 -5.5 86 25 35 4.8 98.89   -12 Snow
06:00 Legend Double Dagger -4.0 -6.0 86 25 45 4.8 98.87   -13 Snow
07:00 Legend Double Dagger -3.6 -6.2 82 26 43 4.8 98.83   -12 Snow
08:00 Legend Double Dagger -3.8 -5.2 90 26 39 3.6 98.79   -12 Snow
09:00 Legend Double Dagger -3.9 -6.7 81 25 43 3.2 98.77   -13 Snow
10:00 Legend Double Dagger -3.1 -7.6 71 25 41 16.1 98.70   -12 LegendNANA
11:00 Legend Double Dagger -3.1 -7.6 71 26 41 16.1 98.71   -12 LegendNANA
12:00 Legend Double Dagger -3.0 -6.7 76 25 46 16.1 98.65   -12 Snow
13:00 Legend Double Dagger -3.3 -6.0 82 25 39 14.5 98.64   -12 Snow
14:00 Legend Double Dagger -3.3 -6.9 77 25 39 16.1 98.62   -12 Snow
15:00 Legend Double Dagger -3.1 -6.5 77 26 39 16.1 98.64   -11 LegendNANA
16:00 Legend Double Dagger -2.8 -6.8 74 26 35 16.1 98.64   -11 LegendNANA
17:00 Legend Double Dagger -2.6 -6.3 76 24 28 16.1 98.62   -10 LegendNANA
18:00 Legend Double Dagger -2.2 -6.7 72 23 35 16.1 98.58   -10 Snow
19:00 Legend Double Dagger -2.1 -6.0 75 25 26 16.1 98.57   -9 Snow
20:00 Legend Double Dagger -2.2 -3.9 88 21 17 16.1 98.56   -8 Snow
21:00 Legend Double Dagger -2.5 -3.3 94 25 21 2.4 98.54   -9 Snow
22:00 Legend Double Dagger -2.2 -3.4 91 23 22 3.2 98.46   -8 Snow
23:00 Legend Double Dagger -2.0 -3.7 88 20 26 8.1 98.42   -9 Snow

Notes on Data Quality.

Legend

  • E = Estimated
  • M = Missing
  • NA = Not Available
  • ‡ = Partner data that is not subject to review by the National Climate Archives
Date modified: